TimeCDT,TemperatureF,Dew PointF,Humidity,Sea Level PressureIn,VisibilityMPH,Wind Direction,Wind SpeedMPH,Gust SpeedMPH,PrecipitationIn,Events,Conditions,WindDirDegrees,DateUTC
12:58 AM,57.7,43.3,59,30.11,10.0,SE,3.5,-,N/A,,Partly Cloudy,140,2013-04-23 05:58:00
1:58 AM,58.5,43.0,56,30.09,10.0,SSE,5.8,-,N/A,,Partly Cloudy,160,2013-04-23 06:58:00
2:58 AM,58.3,44.6,60,30.06,10.0,SSE,8.1,-,N/A,,Clear,150,2013-04-23 07:58:00
3:58 AM,58.1,45.3,62,30.06,10.0,SSE,6.9,-,N/A,,Partly Cloudy,160,2013-04-23 08:58:00
4:58 AM,56.1,46.0,69,30.07,10.0,SE,5.8,-,N/A,,Partly Cloudy,140,2013-04-23 09:58:00
5:58 AM,55.0,46.6,73,30.07,10.0,SE,5.8,-,N/A,,Mostly Cloudy,140,2013-04-23 10:58:00
6:58 AM,55.4,48.0,76,30.09,10.0,SE,5.8,-,N/A,,Mostly Cloudy,130,2013-04-23 11:58:00
7:58 AM,60.8,49.6,67,30.10,10.0,South,8.1,-,N/A,,Scattered Clouds,170,2013-04-23 12:58:00
8:58 AM,65.5,50.4,58,30.08,10.0,South,17.3,23.0,N/A,,Clear,190,2013-04-23 13:58:00
9:58 AM,65.5,51.1,60,30.09,10.0,South,15.0,23.0,N/A,,Scattered Clouds,180,2013-04-23 14:58:00
10:58 AM,65.8,50.4,57,30.08,10.0,SSE,9.2,19.6,N/A,,Partly Cloudy,160,2013-04-23 15:58:00
11:58 AM,69.4,51.1,52,30.09,10.0,South,10.4,23.0,N/A,,Mostly Cloudy,190,2013-04-23 16:58:00
12:58 PM,69.4,51.6,53,30.06,10.0,South,10.4,-,N/A,,Mostly Cloudy,180,2013-04-23 17:58:00
1:58 PM,72.5,52.9,50,30.02,10.0,South,13.8,20.7,N/A,,Mostly Cloudy,170,2013-04-23 18:58:00
2:58 PM,73.9,52.3,47,29.98,10.0,SSE,11.5,23.0,N/A,,Scattered Clouds,160,2013-04-23 19:58:00
3:58 PM,73.0,50.9,46,29.96,10.0,South,10.4,-,N/A,,Mostly Cloudy,190,2013-04-23 20:58:00
4:58 PM,73.6,51.8,46,29.94,10.0,South,10.4,-,N/A,,Mostly Cloudy,180,2013-04-23 21:58:00
5:58 PM,74.1,52.0,46,29.93,10.0,SSW,18.4,27.6,N/A,,Scattered Clouds,200,2013-04-23 22:58:00
6:58 PM,72.1,52.5,50,29.92,10.0,South,12.7,-,N/A,,Scattered Clouds,190,2013-04-23 23:58:00
7:58 PM,70.5,52.9,54,29.93,10.0,South,9.2,-,N/A,,Scattered Clouds,190,2013-04-24 00:58:00
8:16 PM,69.8,53.6,56,29.93,10.0,South,11.5,-,N/A,,Light Drizzle,190,2013-04-24 01:16:00
8:32 PM,69.8,53.6,56,29.94,10.0,South,8.1,-,N/A,,Partly Cloudy,180,2013-04-24 01:32:00
8:58 PM,68.9,53.8,58,29.94,10.0,South,11.5,-,0.00,,Partly Cloudy,170,2013-04-24 01:58:00
9:58 PM,67.5,54.0,62,29.94,10.0,South,11.5,19.6,N/A,,Clear,180,2013-04-24 02:58:00
10:58 PM,67.5,54.3,63,29.93,10.0,South,10.4,-,N/A,,Partly Cloudy,190,2013-04-24 03:58:00
11:58 PM,66.7,54.9,66,29.92,10.0,South,12.7,19.6,N/A,,Clear,180,2013-04-24 04:58:00